Location: Eaton Estates
(41.3089°N, 82.0057°W)
Time: 11:10:59
(UTC+00:00)

X-37B - Pass Details

Date: 06 December 2022
Orbit: 277 x 277 km, 45.0° (Epoch: 01 November)

Event Time Altitude Azimuth Distance (km) Brightness Sun altitude
Rises 23:28:16 0° 224° (SW) 1,903 5.2 -16.3°
Reaches altitude 10° 23:30:18 10° 211° (SSW) 1,094 3.5 -16.7°
Enters shadow 23:32:02 25° 170° (S) 601 1.6 -17.0°
